This demonstration page uses our WeatherBlox Daily Observations layout. Learn more.

Left ArrowRight Arrow

40.97296, -117.73568

Hourly Observations for May 17, 2022

Temp ( °F °C ) Dew Point ( °F °C ) Humidity (%) Winds ( mph kmh ) Pressure ( in mb ) Visibility ( mi km ) Precip ( " mm )
12:56 am 00:56 Clear 51 10.6 35 1.7 54 54 NNW 6 9 29.91 1013 10 16 0.00 0.00
1:56 am 01:56 Clear 50 10 36 2.2 59 59 NNW 7 11 29.91 1013 10 16 0.00 0.00
2:56 am 02:56 Clear 47 8.3 34 1.1 61 61 NNW 5 7 29.93 1014 10 16 0.00 0.00
3:56 am 03:56 Clear 42 5.6 32 0 68 68 W 3 6 29.96 1014 10 16 0.00 0.00
4:56 am 04:56 Clear 42 5.6 31 -0.6 65 65 NNW 5 7 29.97 1015 10 16 0.00 0.00
5:56 am 05:56 Sunny 36 2.2 28 -2.2 73 73 S 6 9 30.00 1016 10 16 0.00 0.00
6:56 am 06:56 Sunny 47 8.3 33 0.6 59 59 Calm 30.01 1016 10 16 0.00 0.00
7:56 am 07:56 Sunny 59 15 33 0.6 38 38 NW 3 6 30.00 1016 10 16 0.00 0.00
8:56 am 08:56 Sunny 64 17.8 37 2.8 37 37 NNE 8 13 30.01 1016 10 16 0.00 0.00
9:56 am 09:56 Sunny 69 20.6 37 2.8 31 31 ENE 9 15 30.01 1016 10 16 0.00 0.00
11:56 am 11:56 Sunny 74 23.3 29 -1.7 19 19 undefined N/A 29.99 1016 10 16 0.00 0.00
12:56 pm 12:56 Sunny 77 25 29 -1.7 17 17 NNW 8 13 29.99 1016 10 16 0.00 0.00
1:56 pm 13:56 Sunny 79 26.1 25 -3.9 14 14 VRB 6 9 29.98 1015 10 16 0.00 0.00
2:56 pm 14:56 Sunny 79 26.1 23 -5 12 12 VRB 6 9 29.97 1015 10 16 0.00 0.00
3:56 pm 15:56 Sunny 80 26.7 22 -5.6 11 11 W 3 6 29.97 1015 10 16 0.00 0.00
4:56 pm 16:56 Sunny 80 26.7 17 -8.3 9 9 undefined N/A 29.97 1015 10 16 0.00 0.00
5:56 pm 17:56 Sunny 80 26.7 19 -7.2 10 10 WNW 8 13 29.98 1015 10 16 0.00 0.00
6:56 pm 18:56 Sunny 78 25.6 17 -8.3 10 10 WNW 9 15 29.96 1015 10 16 0.00 0.00
7:56 pm 19:56 Sunny 69 20.6 17 -8.3 14 14 NNW 7 11 29.98 1015 10 16 0.00 0.00
8:56 pm 20:56 Clear 58 14.4 23 -5 26 26 S 3 6 30.01 1016 10 16 0.00 0.00
9:56 pm 21:56 Clear 51 10.6 24 -4.4 35 35 VRB 3 6 30.03 1017 10 16 0.00 0.00
10:56 pm 22:56 Clear 50 10 26 -3.3 39 39 Calm 30.03 1017 10 16 0.00 0.00
11:56 pm 23:56 Clear 45 7.2 23 -5 42 42 Calm 30.05 1018 10 16 0.00 0.00

Powered by AerisWeather